N25ZDA KSNA-KAVX

Flight info

Callsign N25ZDA
Flight time 0h 20m
Altitude 8000
Route SLI V21 SXC
Aircraft C208/L-SDFGRY/C

Departure

Time 2026-04-26 01:42
Airport John Wayne Orange County International Airport (KSNA)

Arrival

Time 2026-04-26 02:02
Airport Catalina Airport (KAVX)
Time Latitude Longitude Altitude Speed Heading
2026-04-26 01:14 33.66600 -117.87293 64 ft 0 kts 75°
2026-04-26 01:30 33.66602 -117.87291 64 ft 2 kts 39°
2026-04-26 01:31 33.66611 -117.87301 61 ft 0 kts 293°
2026-04-26 01:32 33.66613 -117.87304 62 ft 4 kts 304°
2026-04-26 01:32 33.66678 -117.87318 65 ft 14 kts 18°
2026-04-26 01:33 33.66764 -117.87251 60 ft 17 kts 41°
2026-04-26 01:33 33.66837 -117.87173 60 ft 18 kts 40°
2026-04-26 01:33 33.66946 -117.87059 59 ft 20 kts 40°
2026-04-26 01:33 33.67055 -117.86947 57 ft 20 kts 39°
2026-04-26 01:34 33.67151 -117.86854 59 ft 13 kts 36°
2026-04-26 01:34 33.67205 -117.86818 60 ft 5 kts 27°
2026-04-26 01:34 33.67261 -117.86783 60 ft 17 kts 28°
2026-04-26 01:34 33.67337 -117.86711 63 ft 11 kts 44°
2026-04-26 01:35 33.67441 -117.86630 61 ft 19 kts 27°
2026-04-26 01:35 33.67534 -117.86574 59 ft 11 kts 27°
2026-04-26 01:35 33.67599 -117.86534 59 ft 15 kts 26°
2026-04-26 01:35 33.67699 -117.86467 56 ft 19 kts 28°
2026-04-26 01:36 33.67792 -117.86410 52 ft 11 kts 27°
2026-04-26 01:36 33.67851 -117.86371 53 ft 14 kts 27°
2026-04-26 01:36 33.67957 -117.86305 51 ft 15 kts 29°
2026-04-26 01:37 33.68083 -117.86349 49 ft 12 kts 296°
2026-04-26 01:37 33.68116 -117.86423 47 ft 0 kts 300°
2026-04-26 01:37 33.68116 -117.86422 47 ft 0 kts 300°
2026-04-26 01:41 33.68133 -117.86464 47 ft 14 kts 297°
2026-04-26 01:41 33.68118 -117.86539 47 ft 10 kts 206°
2026-04-26 01:41 33.67946 -117.86646 48 ft 55 kts 207°
2026-04-26 01:42 33.67469 -117.86923 231 ft 85 kts 202°
2026-04-26 01:42 33.66913 -117.87056 682 ft 82 kts 185°
2026-04-26 01:42 33.66284 -117.87117 976 ft 95 kts 187°
2026-04-26 01:42 33.65622 -117.87139 1338 ft 96 kts 182°
2026-04-26 01:43 33.64964 -117.87113 1736 ft 93 kts 182°
2026-04-26 01:43 33.64332 -117.87056 2184 ft 89 kts 178°
2026-04-26 01:43 33.63707 -117.86985 2589 ft 88 kts 181°
2026-04-26 01:43 33.63118 -117.86901 3022 ft 86 kts 184°
2026-04-26 01:44 33.62524 -117.86853 3438 ft 85 kts 174°
2026-04-26 01:44 33.61795 -117.86790 3414 ft 124 kts 184°
2026-04-26 01:44 33.60938 -117.86757 3609 ft 122 kts 182°
2026-04-26 01:44 33.60103 -117.86707 3839 ft 121 kts 182°
2026-04-26 01:45 33.59271 -117.86661 4076 ft 118 kts 188°
2026-04-26 01:45 33.58631 -117.87127 4298 ft 111 kts 241°
2026-04-26 01:45 33.58426 -117.88016 4545 ft 113 kts 269°
2026-04-26 01:45 33.58708 -117.88895 4794 ft 117 kts 304°
2026-04-26 01:46 33.59378 -117.89484 5041 ft 121 kts 321°
2026-04-26 01:46 33.60072 -117.90044 5296 ft 120 kts 319°
2026-04-26 01:46 33.60769 -117.90620 5554 ft 123 kts 318°
2026-04-26 01:46 33.61481 -117.91219 5819 ft 127 kts 319°
2026-04-26 01:47 33.62211 -117.91833 6088 ft 130 kts 319°
2026-04-26 01:47 33.62961 -117.92464 6357 ft 133 kts 319°
2026-04-26 01:47 33.63720 -117.93105 6601 ft 134 kts 318°
2026-04-26 01:47 33.64481 -117.93749 6845 ft 134 kts 318°
2026-04-26 01:48 33.65252 -117.94405 7016 ft 142 kts 317°
2026-04-26 01:48 33.66099 -117.95123 7068 ft 151 kts 318°
2026-04-26 01:48 33.66963 -117.95851 7201 ft 152 kts 318°
2026-04-26 01:48 33.67832 -117.96587 7331 ft 153 kts 317°
2026-04-26 01:49 33.68706 -117.97327 7457 ft 154 kts 317°
2026-04-26 01:49 33.69571 -117.98062 7581 ft 154 kts 317°
2026-04-26 01:49 33.70452 -117.98808 7708 ft 155 kts 317°
2026-04-26 01:49 33.71331 -117.99554 7833 ft 155 kts 317°
2026-04-26 01:50 33.72212 -118.00301 7958 ft 155 kts 317°
2026-04-26 01:50 33.73103 -118.01061 7990 ft 160 kts 317°
2026-04-26 01:50 33.74025 -118.01844 7994 ft 164 kts 317°
2026-04-26 01:50 33.74962 -118.02638 7998 ft 166 kts 317°
2026-04-26 01:51 33.75882 -118.03471 7967 ft 163 kts 309°
2026-04-26 01:51 33.76444 -118.04611 7967 ft 157 kts 283°
2026-04-26 01:51 33.76551 -118.05886 7969 ft 153 kts 261°
2026-04-26 01:51 33.76215 -118.07084 7968 ft 153 kts 240°
2026-04-26 01:52 33.75490 -118.08021 7968 ft 155 kts 219°
2026-04-26 01:52 33.74612 -118.08786 7998 ft 156 kts 220°
2026-04-26 01:52 33.73740 -118.09573 7996 ft 157 kts 220°
2026-04-26 01:52 33.72870 -118.10356 7996 ft 157 kts 220°
2026-04-26 01:53 33.71996 -118.11141 7995 ft 157 kts 220°
2026-04-26 01:53 33.71134 -118.11916 7995 ft 156 kts 220°
2026-04-26 01:53 33.70261 -118.12698 7980 ft 156 kts 220°
2026-04-26 01:53 33.69390 -118.13481 7980 ft 156 kts 220°
2026-04-26 01:54 33.68518 -118.14263 7985 ft 156 kts 219°
2026-04-26 01:54 33.67644 -118.15047 7985 ft 157 kts 220°
2026-04-26 01:54 33.66770 -118.15831 7987 ft 157 kts 219°
2026-04-26 01:54 33.65899 -118.16611 7987 ft 156 kts 220°
2026-04-26 01:55 33.65028 -118.17393 7986 ft 156 kts 220°
2026-04-26 01:55 33.64157 -118.18173 7987 ft 156 kts 220°
2026-04-26 01:55 33.63285 -118.18954 7989 ft 157 kts 220°
2026-04-26 01:55 33.62411 -118.19738 7999 ft 157 kts 220°
2026-04-26 01:56 33.61538 -118.20519 8000 ft 157 kts 220°
2026-04-26 01:56 33.60664 -118.21302 8000 ft 157 kts 220°
2026-04-26 01:56 33.59790 -118.22085 8000 ft 157 kts 220°
2026-04-26 01:56 33.58914 -118.22868 8000 ft 157 kts 220°
2026-04-26 01:57 33.58038 -118.23652 8003 ft 157 kts 220°
2026-04-26 01:57 33.57164 -118.24433 8004 ft 157 kts 220°
2026-04-26 01:57 33.56287 -118.25211 7991 ft 157 kts 220°
2026-04-26 01:57 33.55412 -118.25998 7991 ft 157 kts 220°
2026-04-26 01:58 33.54536 -118.26782 7991 ft 157 kts 220°
2026-04-26 01:58 33.53660 -118.27565 7991 ft 157 kts 220°
2026-04-26 01:58 33.52795 -118.28338 7992 ft 157 kts 220°
2026-04-26 01:58 33.51917 -118.29122 7992 ft 157 kts 220°
2026-04-26 01:59 33.51028 -118.29916 7995 ft 157 kts 220°
2026-04-26 01:59 33.50163 -118.30688 7997 ft 157 kts 220°
2026-04-26 01:59 33.49286 -118.31469 7941 ft 158 kts 220°
2026-04-26 01:59 33.48439 -118.32224 7494 ft 149 kts 221°
2026-04-26 02:00 33.47613 -118.32967 6990 ft 148 kts 220°
2026-04-26 02:00 33.46788 -118.33703 6497 ft 147 kts 221°
2026-04-26 02:00 33.45965 -118.34436 5990 ft 147 kts 222°
2026-04-26 02:00 33.45164 -118.35150 5476 ft 138 kts 221°
2026-04-26 02:01 33.44419 -118.35822 4966 ft 131 kts 221°
2026-04-26 02:01 33.43697 -118.36467 4442 ft 128 kts 221°
2026-04-26 02:01 33.43086 -118.37224 3750 ft 130 kts 240°
2026-04-26 02:01 33.42570 -118.38151 2899 ft 138 kts 237°
2026-04-26 02:02 33.42001 -118.39086 2089 ft 137 kts 237°
2026-04-26 02:02 33.41466 -118.39926 1804 ft 112 kts 231°
2026-04-26 02:02 33.41128 -118.40531 1700 ft 71 kts 236°
2026-04-26 02:02 33.40888 -118.40927 1586 ft 49 kts 237°